Location: Kalberh�ni
(46.4610°N, 7.2453°E)
Time: 14:22:44
(UTC+00:00)

Tiangong - Visible Passes

Search period start: 01 October 2022 00:00
Search period end: 11 October 2022 00:00
Orbit: 381 x 385 km, 41.5° (Epoch: 01 October)

Date Brightness Start Highest point End Pass type
(mag) Time Alt. Az. Time Alt. Az. Time Alt. Az.
08 Oct 0.4 18:47:56 10° SSW 18:48:38 13° SSW 18:48:38 13° SSW visible
09 Oct 0.2 17:48:43 10° S 17:50:12 13° SSE 17:51:27 11° SE visible
09 Oct 1.1 19:23:38 10° SW 19:23:38 10° SW 19:23:38 10° SW visible
10 Oct -0.6 18:23:45 10° SW 18:26:21 23° SSE 18:26:21 23° SSE visible
